Tracking 34717 objects as of 14-Jul-2026
HD Live streaming from Space Station
objects crossing your sky now

USA 422

Track USA 422 now!
10-day predictions


NORAD ID: 61645
Int'l Code: 2024-192B
Perigee: 579.7 km
Apogee: 588.7 km
Inclination: 70.0 °
Period: 96.2 minutes
Semi major axis: 6955 km
RCS: Unknown
Launch date: October 24, 2024
Source: United States (US)
Launch site: AIR FORCE WESTERN TEST RANGE (AFWTR)
Your satellite tracking list
Your tracking list is empty




NASA's NSSDC Master Catalog

Two Line Element Set (TLE):
1 61645U 24192B   26183.94142146 0.00000000  00000-0  00000-0 0    04
2 61645  70.0030 227.1476 0006500 224.9821 135.0178 14.96713260    06
Source of the keplerian elements: McCants